FDB651 OMDB-HUEN

Flight info

Callsign FDB651
Flight time 4h 58m
Altitude 32000
Route ANVIX R401 GIDIS G783 UKRAG/N0468F330 L710 KUKDI/N0471F340 B400 RIGAM B404 DEMGO UB404 HARGA UM216 DUSKU/N0471F360 UM216 IMVIP IMVIP2A
Aircraft B738/M-SDE2E3FGHIRWXY/LB1

Departure

Time 2026-04-22 16:06
Airport Dubai International Airport (OMDB)

Arrival

Time 2026-04-22 21:05
Airport Entebbe International Airport (HUEN)
Time Latitude Longitude Altitude Speed Heading
2026-04-22 15:26 25.25684 55.37187 21 ft 0 kts 30°
2026-04-22 15:53 25.25670 55.37178 23 ft 4 kts 33°
2026-04-22 15:53 25.25648 55.37160 23 ft 4 kts 40°
2026-04-22 15:53 25.25629 55.37139 25 ft 4 kts 54°
2026-04-22 15:53 25.25618 55.37115 22 ft 4 kts 92°
2026-04-22 15:54 25.25621 55.37100 22 ft 1 kts 122°
2026-04-22 15:54 25.25622 55.37098 22 ft 0 kts 122°
2026-04-22 15:59 25.25620 55.37101 18 ft 2 kts 122°
2026-04-22 15:59 25.25608 55.37123 22 ft 5 kts 122°
2026-04-22 15:59 25.25585 55.37165 21 ft 8 kts 121°
2026-04-22 16:00 25.25552 55.37224 22 ft 10 kts 121°
2026-04-22 16:00 25.25514 55.37296 21 ft 11 kts 121°
2026-04-22 16:00 25.25474 55.37366 22 ft 11 kts 122°
2026-04-22 16:00 25.25435 55.37436 23 ft 11 kts 122°
2026-04-22 16:01 25.25389 55.37519 22 ft 15 kts 122°
2026-04-22 16:01 25.25333 55.37618 21 ft 15 kts 123°
2026-04-22 16:01 25.25280 55.37716 23 ft 14 kts 121°
2026-04-22 16:01 25.25229 55.37809 22 ft 14 kts 122°
2026-04-22 16:02 25.25180 55.37897 21 ft 13 kts 121°
2026-04-22 16:02 25.25133 55.37982 23 ft 13 kts 121°
2026-04-22 16:02 25.25085 55.38065 21 ft 12 kts 122°
2026-04-22 16:02 25.25047 55.38134 23 ft 7 kts 121°
2026-04-22 16:03 25.25017 55.38170 21 ft 7 kts 156°
2026-04-22 16:03 25.24975 55.38157 21 ft 6 kts 211°
2026-04-22 16:03 25.24937 55.38132 21 ft 6 kts 211°
2026-04-22 16:03 25.24901 55.38108 21 ft 3 kts 211°
2026-04-22 16:04 25.24899 55.38106 21 ft 0 kts 211°
2026-04-22 16:04 25.24895 55.38103 21 ft 3 kts 211°
2026-04-22 16:05 25.24869 55.38086 18 ft 10 kts 211°
2026-04-22 16:05 25.24804 55.38036 23 ft 7 kts 251°
2026-04-22 16:05 25.24824 55.37986 21 ft 9 kts 302°
2026-04-22 16:05 25.24931 55.37794 21 ft 64 kts 301°
2026-04-22 16:06 25.25289 55.37154 22 ft 133 kts 301°
2026-04-22 16:06 25.25882 55.36086 44 ft 190 kts 302°
2026-04-22 16:06 25.26599 55.34799 755 ft 197 kts 303°
2026-04-22 16:06 25.27305 55.33516 1704 ft 195 kts 303°
2026-04-22 16:07 25.28036 55.32205 2393 ft 210 kts 302°
2026-04-22 16:07 25.28854 55.30745 2697 ft 235 kts 298°
2026-04-22 16:07 25.29358 55.29012 3301 ft 242 kts 272°
2026-04-22 16:07 25.29022 55.27205 4004 ft 247 kts 241°
2026-04-22 16:08 25.28155 55.25607 5027 ft 237 kts 241°
2026-04-22 16:08 25.27380 55.24036 6074 ft 230 kts 242°
2026-04-22 16:08 25.26646 55.22438 6686 ft 242 kts 243°
2026-04-22 16:08 25.25861 55.20693 7014 ft 265 kts 243°
2026-04-22 16:09 25.24928 55.18810 7256 ft 288 kts 231°
2026-04-22 16:09 25.23387 55.17425 8254 ft 283 kts 207°
2026-04-22 16:09 25.21541 55.16801 9380 ft 279 kts 187°
2026-04-22 16:09 25.19608 55.17103 10074 ft 290 kts 159°
2026-04-22 16:10 25.17958 55.18441 10649 ft 302 kts 133°
2026-04-22 16:10 25.16780 55.20421 11098 ft 319 kts 121°
2026-04-22 16:10 25.16086 55.21891 11198 ft 335 kts 119°
2026-04-22 16:10 25.14633 55.25060 11422 ft 363 kts 119°
2026-04-22 16:11 25.13441 55.27610 11570 ft 384 kts 120°
2026-04-22 16:11 25.12175 55.30269 11903 ft 397 kts 120°
2026-04-22 16:11 25.10873 55.32977 12507 ft 401 kts 120°
2026-04-22 16:11 25.09642 55.35752 13176 ft 404 kts 116°
2026-04-22 16:12 25.08494 55.38597 13788 ft 408 kts 116°
2026-04-22 16:12 25.07339 55.41472 14292 ft 412 kts 116°
2026-04-22 16:12 25.06193 55.44401 14772 ft 417 kts 115°
2026-04-22 16:12 25.05066 55.47363 15270 ft 421 kts 114°
2026-04-22 16:13 25.03927 55.50355 15741 ft 425 kts 114°
2026-04-22 16:13 25.02767 55.53376 16206 ft 429 kts 115°
2026-04-22 16:13 25.01555 55.56411 16552 ft 435 kts 118°
2026-04-22 16:13 25.00047 55.59313 17003 ft 436 kts 127°
2026-04-22 16:14 24.97981 55.61657 17546 ft 430 kts 149°
2026-04-22 16:14 24.95321 55.63080 18086 ft 424 kts 165°
2026-04-22 16:14 24.92441 55.63707 18431 ft 422 kts 180°
2026-04-22 16:14 24.89517 55.63543 18794 ft 421 kts 189°
2026-04-22 16:15 24.86594 55.63187 19194 ft 423 kts 189°
2026-04-22 16:15 24.83667 55.62806 19574 ft 424 kts 190°
2026-04-22 16:15 24.80727 55.62426 19961 ft 426 kts 190°
2026-04-22 16:15 24.77776 55.62055 20310 ft 428 kts 189°
2026-04-22 16:16 24.74800 55.61694 20658 ft 431 kts 189°
2026-04-22 16:16 24.71813 55.61339 20993 ft 432 kts 189°
2026-04-22 16:16 24.68848 55.60994 21332 ft 434 kts 189°
2026-04-22 16:16 24.65834 55.60645 21654 ft 436 kts 189°
2026-04-22 16:17 24.62808 55.60296 21960 ft 438 kts 189°
2026-04-22 16:17 24.59766 55.59946 22261 ft 440 kts 189°
2026-04-22 16:17 24.57710 55.59709 22465 ft 441 kts 189°
2026-04-22 16:17 24.54643 55.59356 22769 ft 443 kts 189°
2026-04-22 16:18 24.51567 55.59002 22991 ft 446 kts 189°
2026-04-22 16:18 24.48509 55.58649 23212 ft 449 kts 189°
2026-04-22 16:18 24.45396 55.58291 23478 ft 450 kts 189°
2026-04-22 16:18 24.42268 55.57932 23726 ft 451 kts 189°
2026-04-22 16:19 24.39132 55.57571 23943 ft 453 kts 189°
2026-04-22 16:19 24.36000 55.57211 24149 ft 455 kts 189°
2026-04-22 16:19 24.32835 55.56847 24354 ft 456 kts 189°
2026-04-22 16:19 24.29708 55.56488 24556 ft 457 kts 189°
2026-04-22 16:20 24.26538 55.56125 24752 ft 459 kts 189°
2026-04-22 16:20 24.23356 55.55759 24922 ft 461 kts 189°
2026-04-22 16:20 24.20126 55.55389 25108 ft 462 kts 189°
2026-04-22 16:20 24.16957 55.55026 25297 ft 464 kts 189°
2026-04-22 16:21 24.13736 55.54657 25476 ft 465 kts 189°
2026-04-22 16:21 24.10514 55.54288 25650 ft 466 kts 189°
2026-04-22 16:21 24.07282 55.53918 25823 ft 467 kts 189°
2026-04-22 16:21 24.04043 55.53548 25986 ft 469 kts 189°
2026-04-22 16:22 23.97629 55.52365 26297 ft 466 kts 199°
2026-04-22 16:22 23.94514 55.51370 26453 ft 467 kts 200°
2026-04-22 16:22 23.91394 55.50365 26588 ft 468 kts 200°
2026-04-22 16:23 23.85092 55.48455 26877 ft 471 kts 199°
2026-04-22 16:23 23.81924 55.47520 27039 ft 472 kts 199°
2026-04-22 16:23 23.78759 55.46581 27245 ft 471 kts 199°
2026-04-22 16:24 23.75598 55.45641 27468 ft 470 kts 199°
2026-04-22 16:24 23.69326 55.43772 27797 ft 471 kts 199°
2026-04-22 16:24 23.66160 55.42828 27901 ft 472 kts 199°
2026-04-22 16:25 23.62990 55.41884 28091 ft 472 kts 199°
2026-04-22 16:25 23.56670 55.40009 28539 ft 470 kts 199°
2026-04-22 16:25 23.53440 55.39350 28682 ft 476 kts 189°
2026-04-22 16:26 23.46730 55.39730 28762 ft 492 kts 171°
2026-04-22 16:26 23.40062 55.41754 28758 ft 501 kts 167°
2026-04-22 16:27 23.33353 55.43936 28772 ft 505 kts 167°
2026-04-22 16:27 23.26632 55.46094 28766 ft 507 kts 167°
2026-04-22 16:28 23.19841 55.48242 28768 ft 509 kts 167°
2026-04-22 16:28 23.13024 55.50391 28770 ft 510 kts 167°
2026-04-22 16:29 23.06206 55.52541 28769 ft 510 kts 167°
2026-04-22 16:29 22.99377 55.54671 28772 ft 511 kts 167°
2026-04-22 16:30 22.92535 55.56752 28769 ft 511 kts 167°
2026-04-22 16:30 22.85681 55.58835 28778 ft 511 kts 167°
2026-04-22 16:31 22.78835 55.60922 28795 ft 511 kts 167°
2026-04-22 16:31 22.75432 55.61961 29067 ft 505 kts 167°
2026-04-22 16:31 22.72107 55.62976 29441 ft 499 kts 167°
2026-04-22 16:32 22.68784 55.63989 29829 ft 494 kts 168°
2026-04-22 16:32 22.65487 55.64992 30081 ft 491 kts 168°
2026-04-22 16:32 22.62203 55.65990 30268 ft 490 kts 168°
2026-04-22 16:32 22.58914 55.66994 30356 ft 491 kts 168°
2026-04-22 16:33 22.52332 55.69011 30511 ft 493 kts 168°
2026-04-22 16:33 22.49019 55.70027 30624 ft 494 kts 168°
2026-04-22 16:33 22.45714 55.71041 30762 ft 493 kts 168°
2026-04-22 16:34 22.39097 55.73066 30862 ft 496 kts 168°
2026-04-22 16:34 22.32446 55.75100 31109 ft 496 kts 168°
2026-04-22 16:35 22.29128 55.76114 31254 ft 495 kts 168°
2026-04-22 16:35 22.25801 55.77081 31347 ft 494 kts 172°
2026-04-22 16:35 22.19029 55.77965 31543 ft 488 kts 180°
2026-04-22 16:36 22.12235 55.78531 31676 ft 491 kts 180°
2026-04-22 16:36 22.08868 55.78831 31778 ft 491 kts 180°
2026-04-22 16:36 22.05464 55.79154 31896 ft 491 kts 180°
2026-04-22 16:37 22.02064 55.79491 32042 ft 490 kts 179°
2026-04-22 16:37 21.98667 55.79834 32158 ft 490 kts 179°
2026-04-22 16:37 21.91856 55.80525 32321 ft 491 kts 180°
2026-04-22 16:38 21.85025 55.81212 32407 ft 493 kts 180°
2026-04-22 16:38 21.81645 55.81552 32532 ft 493 kts 180°
2026-04-22 16:38 21.78227 55.81895 32672 ft 492 kts 180°
2026-04-22 16:39 21.71400 55.82579 32805 ft 493 kts 180°
2026-04-22 16:39 21.64526 55.83257 32798 ft 497 kts 180°
2026-04-22 16:40 21.57604 55.83931 32810 ft 501 kts 180°
2026-04-22 16:41 21.47178 55.84949 32811 ft 505 kts 180°
2026-04-22 16:41 21.40161 55.85635 32809 ft 507 kts 180°
2026-04-22 16:42 21.33127 55.86322 32807 ft 508 kts 180°
2026-04-22 16:42 21.26080 55.87008 32806 ft 509 kts 180°
2026-04-22 16:43 21.19014 55.87689 32811 ft 509 kts 180°
2026-04-22 16:43 21.11950 55.88366 32783 ft 510 kts 180°
2026-04-22 16:44 21.04873 55.89046 32804 ft 510 kts 180°
2026-04-22 16:44 20.97846 55.89721 32811 ft 510 kts 180°
2026-04-22 16:45 20.90755 55.90401 32804 ft 511 kts 180°
2026-04-22 16:45 20.83669 55.91083 32799 ft 511 kts 180°
2026-04-22 16:46 20.76576 55.91780 32807 ft 512 kts 180°
2026-04-22 16:46 20.69479 55.92479 32807 ft 512 kts 180°
2026-04-22 16:47 20.62383 55.93177 32810 ft 512 kts 180°
2026-04-22 16:47 20.56481 55.93755 32799 ft 513 kts 180°
2026-04-22 16:48 20.48173 55.94568 32812 ft 513 kts 180°
2026-04-22 16:48 20.41095 55.95261 32807 ft 514 kts 180°
2026-04-22 16:49 20.33954 55.95960 32806 ft 514 kts 180°
2026-04-22 16:49 20.26822 55.96650 32800 ft 515 kts 180°
2026-04-22 16:50 20.19717 55.97323 32814 ft 515 kts 180°
2026-04-22 16:50 20.12678 55.97996 32809 ft 500 kts 180°
2026-04-22 16:51 20.05759 55.98556 32812 ft 494 kts 184°
2026-04-22 16:51 19.98912 55.98719 32816 ft 491 kts 185°
2026-04-22 16:52 19.92085 55.98816 32820 ft 490 kts 185°
2026-04-22 16:52 19.85320 55.98955 32822 ft 489 kts 185°
2026-04-22 16:53 19.78509 55.99121 32830 ft 490 kts 185°
2026-04-22 16:53 19.71680 55.99289 32822 ft 491 kts 185°
2026-04-22 16:54 19.64837 55.99455 32834 ft 492 kts 184°
2026-04-22 16:54 19.58019 55.99620 32840 ft 494 kts 184°
2026-04-22 16:55 19.51253 55.99108 32852 ft 482 kts 200°
2026-04-22 16:55 19.48049 55.98076 32975 ft 476 kts 208°
2026-04-22 16:55 19.45087 55.96605 33236 ft 465 kts 217°
2026-04-22 16:55 19.42296 55.94884 33608 ft 460 kts 218°
2026-04-22 16:56 19.39550 55.93171 33857 ft 457 kts 218°
2026-04-22 16:56 19.34055 55.89766 33854 ft 461 kts 217°
2026-04-22 16:57 19.28492 55.86376 33857 ft 459 kts 217°
2026-04-22 16:57 19.22947 55.83019 33852 ft 458 kts 217°
2026-04-22 16:58 19.18353 55.80239 33853 ft 456 kts 217°
2026-04-22 16:58 19.11956 55.76367 33849 ft 455 kts 217°
2026-04-22 16:59 19.06464 55.73045 33857 ft 454 kts 217°
2026-04-22 16:59 19.00959 55.69726 33859 ft 455 kts 217°
2026-04-22 17:00 18.95450 55.66414 33862 ft 456 kts 217°
2026-04-22 17:00 18.87144 55.61423 33868 ft 458 kts 217°
2026-04-22 17:01 18.81588 55.58086 33855 ft 459 kts 216°
2026-04-22 17:01 18.76025 55.54748 33858 ft 460 kts 216°
2026-04-22 17:02 18.70484 55.51425 33865 ft 461 kts 216°
2026-04-22 17:02 18.64898 55.48078 33861 ft 461 kts 216°
2026-04-22 17:03 18.59312 55.44734 33859 ft 461 kts 216°
2026-04-22 17:03 18.53737 55.41399 33860 ft 460 kts 216°
2026-04-22 17:04 18.49115 55.38636 33862 ft 460 kts 216°
2026-04-22 17:04 18.43552 55.35311 33855 ft 459 kts 216°
2026-04-22 17:05 18.37107 55.31462 33858 ft 458 kts 216°
2026-04-22 17:05 18.32462 55.28691 33863 ft 457 kts 216°
2026-04-22 17:06 18.26935 55.25394 33862 ft 456 kts 216°
2026-04-22 17:06 18.21414 55.22100 33853 ft 455 kts 216°
2026-04-22 17:07 18.15941 55.18838 33848 ft 455 kts 216°
2026-04-22 17:07 18.10247 55.15856 33864 ft 460 kts 210°
2026-04-22 17:08 18.04307 55.13254 33859 ft 462 kts 209°
2026-04-22 17:08 17.98397 55.10681 33862 ft 462 kts 209°
2026-04-22 17:09 17.92454 55.08043 33871 ft 463 kts 210°
2026-04-22 17:09 17.86522 55.05384 33857 ft 464 kts 210°
2026-04-22 17:10 17.80570 55.02715 33874 ft 465 kts 210°
2026-04-22 17:10 17.74611 55.00046 33872 ft 466 kts 209°
2026-04-22 17:11 17.68668 54.97388 33869 ft 467 kts 210°
2026-04-22 17:11 17.62693 54.94717 33870 ft 467 kts 209°
2026-04-22 17:12 17.56718 54.92048 33877 ft 467 kts 209°
2026-04-22 17:12 17.50742 54.89382 33888 ft 467 kts 209°
2026-04-22 17:13 17.44792 54.86727 33880 ft 467 kts 209°
2026-04-22 17:13 17.38818 54.84061 33890 ft 467 kts 209°
2026-04-22 17:14 17.32831 54.81397 33890 ft 467 kts 209°
2026-04-22 17:14 17.26865 54.78702 33898 ft 465 kts 212°
2026-04-22 17:15 17.21412 54.75202 33899 ft 458 kts 219°
2026-04-22 17:15 17.16114 54.71553 33894 ft 459 kts 219°
2026-04-22 17:16 17.10751 54.67925 33905 ft 460 kts 218°
2026-04-22 17:16 17.05359 54.64319 33891 ft 460 kts 218°
2026-04-22 17:17 16.99961 54.60717 33891 ft 460 kts 218°
2026-04-22 17:17 16.94560 54.57111 33887 ft 460 kts 218°
2026-04-22 17:18 16.89149 54.53501 33861 ft 461 kts 218°
2026-04-22 17:18 16.83777 54.49918 33869 ft 461 kts 218°
2026-04-22 17:19 16.72964 54.42707 33855 ft 461 kts 218°
2026-04-22 17:20 16.62116 54.35480 33855 ft 462 kts 218°
2026-04-22 17:21 16.54014 54.30091 33854 ft 462 kts 218°
2026-04-22 17:22 16.45879 54.24684 33862 ft 462 kts 218°
2026-04-22 17:23 16.37740 54.19280 33864 ft 462 kts 218°
2026-04-22 17:23 16.29613 54.13889 33874 ft 461 kts 218°
2026-04-22 17:24 16.24198 54.10301 33868 ft 461 kts 217°
2026-04-22 17:24 16.18785 54.06716 33883 ft 461 kts 217°
2026-04-22 17:25 16.13370 54.03131 33879 ft 461 kts 217°
2026-04-22 17:25 16.07981 53.99566 33885 ft 462 kts 217°
2026-04-22 17:26 16.02557 53.95980 33885 ft 462 kts 217°
2026-04-22 17:26 15.97128 53.92394 33889 ft 463 kts 217°
2026-04-22 17:27 15.91685 53.88799 33869 ft 463 kts 217°
2026-04-22 17:27 15.86239 53.85201 33889 ft 464 kts 217°
2026-04-22 17:28 15.80795 53.81567 33888 ft 465 kts 217°
2026-04-22 17:28 15.75345 53.77922 33886 ft 466 kts 217°
2026-04-22 17:29 15.69877 53.74270 33889 ft 468 kts 217°
2026-04-22 17:29 15.64396 53.70615 33881 ft 469 kts 217°
2026-04-22 17:30 15.58934 53.66976 33880 ft 470 kts 218°
2026-04-22 17:30 15.53422 53.63304 33906 ft 471 kts 218°
2026-04-22 17:31 15.47904 53.59631 33885 ft 472 kts 218°
2026-04-22 17:31 15.42368 53.55954 33889 ft 473 kts 217°
2026-04-22 17:32 15.36782 53.52355 33889 ft 473 kts 217°
2026-04-22 17:32 15.31161 53.48776 33886 ft 473 kts 217°
2026-04-22 17:33 15.25586 53.45217 33887 ft 473 kts 217°
2026-04-22 17:33 15.19991 53.41635 33884 ft 472 kts 217°
2026-04-22 17:34 15.14396 53.38053 33883 ft 472 kts 217°
2026-04-22 17:34 15.08802 53.34474 33884 ft 471 kts 217°
2026-04-22 17:35 15.03256 53.30928 33886 ft 471 kts 217°
2026-04-22 17:35 14.97681 53.27367 33886 ft 470 kts 217°
2026-04-22 17:36 14.92116 53.23814 33897 ft 470 kts 217°
2026-04-22 17:36 14.86557 53.20266 33875 ft 469 kts 217°
2026-04-22 17:37 14.81001 53.16722 33895 ft 469 kts 217°
2026-04-22 17:37 14.75448 53.13182 33890 ft 469 kts 217°
2026-04-22 17:38 14.69897 53.09643 33879 ft 468 kts 218°
2026-04-22 17:38 14.65114 53.05316 33886 ft 454 kts 236°
2026-04-22 17:39 14.61703 52.99919 33879 ft 447 kts 245°
2026-04-22 17:40 14.57052 52.91566 33878 ft 448 kts 244°
2026-04-22 17:40 14.53911 52.85995 33889 ft 448 kts 244°
2026-04-22 17:41 14.50778 52.80478 33873 ft 449 kts 244°
2026-04-22 17:41 14.47616 52.74924 33877 ft 449 kts 244°
2026-04-22 17:42 14.44444 52.69356 33878 ft 449 kts 244°
2026-04-22 17:42 14.41816 52.64744 33886 ft 449 kts 244°
2026-04-22 17:43 14.38108 52.58241 33879 ft 449 kts 244°
2026-04-22 17:43 14.34958 52.52721 33874 ft 449 kts 244°
2026-04-22 17:44 14.31791 52.47173 33883 ft 449 kts 244°
2026-04-22 17:44 14.28620 52.41625 33886 ft 448 kts 244°
2026-04-22 17:45 14.25455 52.36088 33876 ft 448 kts 244°
2026-04-22 17:45 14.22287 52.30552 33884 ft 448 kts 244°
2026-04-22 17:46 14.19124 52.25028 33876 ft 447 kts 244°
2026-04-22 17:46 14.15962 52.19509 33875 ft 447 kts 244°
2026-04-22 17:47 14.12800 52.13994 33888 ft 446 kts 244°
2026-04-22 17:47 14.09646 52.08496 33878 ft 446 kts 244°
2026-04-22 17:48 14.07018 52.03919 33881 ft 446 kts 244°
2026-04-22 17:48 14.03349 51.97531 33877 ft 445 kts 244°
2026-04-22 17:49 14.00194 51.92043 33873 ft 445 kts 244°
2026-04-22 17:49 13.97043 51.86564 33876 ft 445 kts 244°
2026-04-22 17:50 13.93887 51.81081 33876 ft 445 kts 244°
2026-04-22 17:50 13.90723 51.75588 33878 ft 445 kts 244°
2026-04-22 17:51 13.87581 51.70136 33875 ft 445 kts 244°
2026-04-22 17:51 13.84419 51.64654 33870 ft 445 kts 244°
2026-04-22 17:52 13.81252 51.59166 33877 ft 446 kts 244°
2026-04-22 17:52 13.78616 51.54600 33859 ft 446 kts 244°
2026-04-22 17:53 13.75448 51.49116 33877 ft 446 kts 244°
2026-04-22 17:53 13.72296 51.43606 33877 ft 446 kts 244°
2026-04-22 17:54 13.69202 51.38078 33868 ft 446 kts 244°
2026-04-22 17:54 13.66107 51.32545 33872 ft 446 kts 244°
2026-04-22 17:55 13.63020 51.27043 33873 ft 447 kts 244°
2026-04-22 17:55 13.59909 51.21509 33871 ft 447 kts 244°
2026-04-22 17:56 13.56794 51.15974 33871 ft 447 kts 244°
2026-04-22 17:56 13.53682 51.10447 33871 ft 447 kts 244°
2026-04-22 17:57 13.50558 51.04902 33869 ft 447 kts 244°
2026-04-22 17:57 13.47440 50.99372 33865 ft 447 kts 244°
2026-04-22 17:58 13.44318 50.93839 33867 ft 447 kts 244°
2026-04-22 17:58 13.41200 50.88316 33865 ft 447 kts 244°
2026-04-22 17:59 13.38096 50.82820 33863 ft 447 kts 244°
2026-04-22 17:59 13.34974 50.77297 33857 ft 447 kts 244°
2026-04-22 18:00 13.32381 50.72711 33867 ft 447 kts 244°
2026-04-22 18:00 13.28732 50.66264 33867 ft 447 kts 244°
2026-04-22 18:01 13.25604 50.60740 33867 ft 447 kts 244°
2026-04-22 18:01 13.22493 50.55247 33862 ft 448 kts 244°
2026-04-22 18:02 13.19359 50.49722 33858 ft 448 kts 244°
2026-04-22 18:02 13.16196 50.44175 34047 ft 450 kts 244°
2026-04-22 18:02 13.14619 50.41416 34293 ft 447 kts 244°
2026-04-22 18:03 13.13045 50.38662 34531 ft 446 kts 244°
2026-04-22 18:03 13.11478 50.35919 34678 ft 446 kts 244°
2026-04-22 18:03 13.09909 50.33172 34797 ft 447 kts 244°
2026-04-22 18:03 13.08337 50.30419 34947 ft 447 kts 244°
2026-04-22 18:04 13.06765 50.27666 35130 ft 446 kts 244°
2026-04-22 18:04 13.05199 50.24927 35320 ft 445 kts 244°
2026-04-22 18:04 13.03636 50.22193 35480 ft 444 kts 244°
2026-04-22 18:04 13.02094 50.19495 35610 ft 445 kts 244°
2026-04-22 18:05 13.00530 50.16759 35744 ft 444 kts 244°
2026-04-22 18:05 12.97399 50.11288 35852 ft 446 kts 244°
2026-04-22 18:06 12.94257 50.05799 35847 ft 446 kts 243°
2026-04-22 18:06 12.91107 50.00302 35858 ft 447 kts 243°
2026-04-22 18:07 12.87953 49.94801 35857 ft 447 kts 243°
2026-04-22 18:07 12.84816 49.89332 35852 ft 448 kts 243°
2026-04-22 18:08 12.81656 49.83826 35852 ft 448 kts 243°
2026-04-22 18:08 12.78494 49.78321 35852 ft 448 kts 243°
2026-04-22 18:09 12.75336 49.72827 35848 ft 447 kts 243°
2026-04-22 18:09 12.72177 49.67333 35853 ft 447 kts 243°
2026-04-22 18:10 12.69047 49.61893 35842 ft 446 kts 243°
2026-04-22 18:10 12.65894 49.56417 35847 ft 446 kts 243°
2026-04-22 18:11 12.62744 49.50948 35846 ft 446 kts 243°
2026-04-22 18:11 12.59597 49.45490 35843 ft 445 kts 243°
2026-04-22 18:12 12.56448 49.40029 35844 ft 445 kts 243°
2026-04-22 18:12 12.53822 49.35480 35836 ft 445 kts 243°
2026-04-22 18:13 12.50144 49.29110 35844 ft 445 kts 243°
2026-04-22 18:13 12.46990 49.23651 35845 ft 445 kts 243°
2026-04-22 18:14 12.43833 49.18189 35844 ft 446 kts 243°
2026-04-22 18:14 12.40692 49.12759 35845 ft 446 kts 243°
2026-04-22 18:15 12.37526 49.07289 35848 ft 447 kts 243°
2026-04-22 18:15 12.34360 49.01824 35847 ft 447 kts 243°
2026-04-22 18:16 12.31183 48.96341 35847 ft 447 kts 243°
2026-04-22 18:16 12.28009 48.90867 35846 ft 448 kts 243°
2026-04-22 18:17 12.24850 48.85422 35847 ft 448 kts 243°
2026-04-22 18:17 12.21668 48.79941 35846 ft 448 kts 243°
2026-04-22 18:18 12.18486 48.74462 35848 ft 448 kts 243°
2026-04-22 18:18 12.15306 48.68990 35843 ft 448 kts 243°
2026-04-22 18:19 12.12144 48.63552 35839 ft 447 kts 243°
2026-04-22 18:19 12.08968 48.58092 35844 ft 447 kts 243°
2026-04-22 18:20 12.05785 48.52623 35846 ft 447 kts 243°
2026-04-22 18:20 12.02631 48.47147 35843 ft 446 kts 243°
2026-04-22 18:21 11.99550 48.41692 35843 ft 446 kts 244°
2026-04-22 18:21 11.96445 48.36190 35844 ft 446 kts 244°
2026-04-22 18:22 11.93341 48.30707 35845 ft 446 kts 243°
2026-04-22 18:22 11.90233 48.25227 35843 ft 446 kts 243°
2026-04-22 18:23 11.87125 48.19751 35843 ft 446 kts 243°
2026-04-22 18:23 11.84013 48.14272 35844 ft 446 kts 243°
2026-04-22 18:24 11.79364 48.06092 35845 ft 445 kts 243°
2026-04-22 18:25 11.74697 47.97887 35832 ft 446 kts 243°
2026-04-22 18:25 11.71580 47.92410 35839 ft 446 kts 243°
2026-04-22 18:26 11.66905 47.84202 35836 ft 446 kts 243°
2026-04-22 18:26 11.63801 47.78755 35839 ft 447 kts 243°
2026-04-22 18:27 11.60676 47.73275 35840 ft 447 kts 243°
2026-04-22 18:27 11.57537 47.67774 35838 ft 447 kts 243°
2026-04-22 18:28 11.54405 47.62288 35836 ft 448 kts 243°
2026-04-22 18:28 11.51269 47.56798 35835 ft 448 kts 243°
2026-04-22 18:29 11.48128 47.51301 35833 ft 448 kts 243°
2026-04-22 18:29 11.45006 47.45841 35833 ft 448 kts 243°
2026-04-22 18:30 11.40293 47.37604 35837 ft 448 kts 243°
2026-04-22 18:31 11.37151 47.32116 35832 ft 448 kts 243°
2026-04-22 18:31 11.34002 47.26617 35830 ft 448 kts 243°
2026-04-22 18:32 11.31394 47.22062 35828 ft 448 kts 243°
2026-04-22 18:32 11.27741 47.15682 35832 ft 448 kts 243°
2026-04-22 18:33 11.24597 47.10195 35832 ft 447 kts 243°
2026-04-22 18:33 11.21457 47.04717 35828 ft 447 kts 243°
2026-04-22 18:34 11.18335 46.99274 35828 ft 447 kts 243°
2026-04-22 18:34 11.15200 46.93809 35822 ft 447 kts 243°
2026-04-22 18:35 11.12062 46.88343 35822 ft 446 kts 243°
2026-04-22 18:35 11.08924 46.82880 35826 ft 446 kts 243°
2026-04-22 18:36 11.05792 46.77432 35826 ft 446 kts 243°
2026-04-22 18:36 11.02653 46.71972 35821 ft 446 kts 243°
2026-04-22 18:37 10.99530 46.66544 35823 ft 446 kts 243°
2026-04-22 18:37 10.96900 46.61974 35821 ft 446 kts 243°
2026-04-22 18:38 10.93247 46.55631 35824 ft 447 kts 243°
2026-04-22 18:38 10.90100 46.50169 35825 ft 447 kts 243°
2026-04-22 18:39 10.85395 46.42007 35825 ft 448 kts 243°
2026-04-22 18:39 10.82238 46.36533 35828 ft 448 kts 243°
2026-04-22 18:40 10.79086 46.31061 35839 ft 448 kts 243°
2026-04-22 18:40 10.76495 46.26493 35838 ft 448 kts 244°
2026-04-22 18:41 10.73392 46.20997 35842 ft 449 kts 244°
2026-04-22 18:41 10.70278 46.15490 35841 ft 449 kts 243°
2026-04-22 18:42 10.67160 46.09986 35850 ft 449 kts 243°
2026-04-22 18:42 10.64043 46.04488 35852 ft 449 kts 243°
2026-04-22 18:43 10.60920 45.98984 35857 ft 449 kts 243°
2026-04-22 18:43 10.57800 45.93489 35850 ft 449 kts 243°
2026-04-22 18:44 10.54697 45.88024 35849 ft 449 kts 243°
2026-04-22 18:44 10.51572 45.82525 35845 ft 449 kts 243°
2026-04-22 18:45 10.48448 45.77032 35852 ft 448 kts 243°
2026-04-22 18:45 10.45330 45.71550 35850 ft 448 kts 243°
2026-04-22 18:46 10.42209 45.66064 35839 ft 448 kts 243°
2026-04-22 18:46 10.39092 45.60590 35834 ft 447 kts 243°
2026-04-22 18:47 10.35995 45.55153 35842 ft 447 kts 243°
2026-04-22 18:47 10.32880 45.49689 35852 ft 447 kts 243°
2026-04-22 18:48 10.29760 45.44217 35856 ft 447 kts 243°
2026-04-22 18:48 10.26641 45.38749 35852 ft 448 kts 243°
2026-04-22 18:49 10.23516 45.33275 35859 ft 447 kts 243°
2026-04-22 18:49 10.20391 45.27802 35882 ft 448 kts 243°
2026-04-22 18:50 10.17284 45.22363 35889 ft 448 kts 243°
2026-04-22 18:50 10.14155 45.16890 35883 ft 448 kts 243°
2026-04-22 18:51 10.11023 45.11413 35891 ft 449 kts 243°
2026-04-22 18:51 10.07884 45.05927 35893 ft 449 kts 243°
2026-04-22 18:52 10.04744 45.00442 35918 ft 450 kts 243°
2026-04-22 18:52 10.01616 44.94980 35906 ft 450 kts 243°
2026-04-22 18:53 9.98463 44.89478 35904 ft 451 kts 243°
2026-04-22 18:53 9.95313 44.83983 35921 ft 451 kts 243°
2026-04-22 18:54 9.92150 44.78468 35923 ft 451 kts 243°
2026-04-22 18:54 9.89001 44.72979 35915 ft 451 kts 243°
2026-04-22 18:55 9.85863 44.67514 35917 ft 450 kts 243°
2026-04-22 18:55 9.82712 44.62027 35918 ft 450 kts 243°
2026-04-22 18:56 9.79563 44.56548 35930 ft 449 kts 243°
2026-04-22 18:56 9.76410 44.51063 35928 ft 449 kts 243°
2026-04-22 18:57 9.73262 44.45589 35926 ft 449 kts 243°
2026-04-22 18:57 9.70119 44.40126 35928 ft 448 kts 242°
2026-04-22 18:58 9.66994 44.34699 35934 ft 448 kts 242°
2026-04-22 18:58 9.63851 44.29241 35937 ft 448 kts 242°
2026-04-22 18:59 9.60702 44.23775 35941 ft 448 kts 242°
2026-04-22 18:59 9.57554 44.18314 35944 ft 448 kts 242°
2026-04-22 19:00 9.54408 44.12857 35951 ft 448 kts 242°
2026-04-22 19:00 9.51114 44.07525 35940 ft 451 kts 234°
2026-04-22 19:01 9.47144 44.02582 35946 ft 452 kts 232°
2026-04-22 19:01 9.43131 43.97683 35959 ft 452 kts 233°
2026-04-22 19:02 9.39147 43.92736 35957 ft 453 kts 233°
2026-04-22 19:02 9.35184 43.87773 35956 ft 453 kts 233°
2026-04-22 19:03 9.31213 43.82799 35960 ft 454 kts 233°
2026-04-22 19:03 9.27262 43.77855 35948 ft 454 kts 233°
2026-04-22 19:04 9.23270 43.72880 35960 ft 455 kts 233°
2026-04-22 19:04 9.19244 43.67921 35953 ft 455 kts 233°
2026-04-22 19:05 9.15247 43.63006 35963 ft 455 kts 233°
2026-04-22 19:05 9.11226 43.58056 35961 ft 455 kts 233°
2026-04-22 19:06 9.07200 43.53096 35955 ft 455 kts 233°
2026-04-22 19:07 9.01169 43.45671 35955 ft 455 kts 233°
2026-04-22 19:07 8.97145 43.40718 35953 ft 455 kts 233°
2026-04-22 19:08 8.93128 43.35776 35954 ft 455 kts 233°
2026-04-22 19:08 8.89131 43.30861 35952 ft 454 kts 233°
2026-04-22 19:09 8.85119 43.25929 35959 ft 454 kts 233°
2026-04-22 19:09 8.81777 43.21821 35931 ft 454 kts 233°
2026-04-22 19:10 8.77088 43.16061 35942 ft 454 kts 233°
2026-04-22 19:10 8.73075 43.11134 35944 ft 454 kts 233°
2026-04-22 19:11 8.69059 43.06204 35947 ft 454 kts 233°
2026-04-22 19:11 8.65057 43.01293 35944 ft 455 kts 233°
2026-04-22 19:12 8.61027 42.96350 35935 ft 455 kts 233°
2026-04-22 19:12 8.56998 42.91409 35936 ft 456 kts 233°
2026-04-22 19:13 8.52961 42.86462 35929 ft 456 kts 233°
2026-04-22 19:13 8.48927 42.81520 35927 ft 456 kts 233°
2026-04-22 19:14 8.44921 42.76613 35925 ft 456 kts 233°
2026-04-22 19:14 8.40889 42.71676 35927 ft 455 kts 233°
2026-04-22 19:15 8.37507 42.67537 35921 ft 455 kts 233°
2026-04-22 19:15 8.32827 42.61810 35922 ft 455 kts 233°
2026-04-22 19:16 8.28792 42.56874 35916 ft 455 kts 233°
2026-04-22 19:16 8.24763 42.51947 35919 ft 454 kts 233°
2026-04-22 19:17 8.20734 42.47023 35922 ft 454 kts 233°
2026-04-22 19:17 8.16707 42.42108 35914 ft 454 kts 233°
2026-04-22 19:18 8.12707 42.37224 35916 ft 454 kts 233°
2026-04-22 19:18 8.08681 42.32309 35914 ft 454 kts 233°
2026-04-22 19:19 8.04649 42.27388 35912 ft 454 kts 233°
2026-04-22 19:19 8.00616 42.22468 35909 ft 455 kts 233°
2026-04-22 19:20 7.96581 42.17547 35910 ft 455 kts 233°
2026-04-22 19:20 7.92545 42.12626 35906 ft 455 kts 233°
2026-04-22 19:21 7.88529 42.07732 35901 ft 455 kts 233°
2026-04-22 19:21 7.84487 42.02806 35909 ft 456 kts 233°
2026-04-22 19:22 7.80444 41.97883 35905 ft 456 kts 233°
2026-04-22 19:22 7.76402 41.92961 35914 ft 455 kts 233°
2026-04-22 19:23 7.72356 41.88034 35911 ft 455 kts 233°
2026-04-22 19:23 7.68310 41.83115 35910 ft 456 kts 233°
2026-04-22 19:24 7.64252 41.78201 35917 ft 456 kts 232°
2026-04-22 19:24 7.60190 41.73285 35919 ft 456 kts 232°
2026-04-22 19:25 7.56124 41.68364 35915 ft 457 kts 232°
2026-04-22 19:25 7.52081 41.63471 35916 ft 457 kts 232°
2026-04-22 19:26 7.48014 41.58550 35923 ft 457 kts 232°
2026-04-22 19:26 7.43950 41.53633 35926 ft 457 kts 232°
2026-04-22 19:27 7.39884 41.48716 35926 ft 456 kts 232°
2026-04-22 19:27 7.35815 41.43797 35923 ft 456 kts 232°
2026-04-22 19:28 7.31754 41.38888 35932 ft 456 kts 232°
2026-04-22 19:28 7.28378 41.34807 35926 ft 456 kts 232°
2026-04-22 19:29 7.23658 41.29102 35938 ft 456 kts 232°
2026-04-22 19:29 7.20305 41.24954 35950 ft 455 kts 233°
2026-04-22 19:30 7.16996 41.20816 35946 ft 456 kts 233°
2026-04-22 19:30 7.12364 41.15029 35954 ft 456 kts 233°
2026-04-22 19:31 7.08372 41.10055 35959 ft 456 kts 233°
2026-04-22 19:31 7.04373 41.05082 35968 ft 457 kts 233°
2026-04-22 19:32 7.00394 41.00134 35980 ft 457 kts 233°
2026-04-22 19:32 6.96394 40.95162 35974 ft 457 kts 233°
2026-04-22 19:33 6.92387 40.90182 35991 ft 457 kts 233°
2026-04-22 19:33 6.88383 40.85207 35976 ft 457 kts 233°
2026-04-22 19:34 6.84377 40.80232 35980 ft 457 kts 233°
2026-04-22 19:34 6.80388 40.75279 35976 ft 458 kts 233°
2026-04-22 19:35 6.76378 40.70301 35983 ft 458 kts 233°
2026-04-22 19:35 6.72365 40.65322 35983 ft 457 kts 233°
2026-04-22 19:36 6.68357 40.60350 35980 ft 457 kts 233°
2026-04-22 19:36 6.64348 40.55378 35979 ft 457 kts 233°
2026-04-22 19:37 6.60338 40.50405 35988 ft 458 kts 233°
2026-04-22 19:37 6.56318 40.45422 35972 ft 458 kts 233°
2026-04-22 19:38 6.52299 40.40442 35969 ft 459 kts 233°
2026-04-22 19:38 6.48301 40.35490 35964 ft 458 kts 233°
2026-04-22 19:39 6.44275 40.30504 35956 ft 459 kts 233°
2026-04-22 19:39 6.40254 40.25525 35965 ft 458 kts 233°
2026-04-22 19:40 6.36246 40.20564 35954 ft 459 kts 233°
2026-04-22 19:40 6.32222 40.15583 35967 ft 459 kts 232°
2026-04-22 19:41 6.28184 40.10585 35964 ft 460 kts 232°
2026-04-22 19:41 6.24138 40.05581 35964 ft 462 kts 232°
2026-04-22 19:42 6.19941 40.00664 35963 ft 464 kts 229°
2026-04-22 19:42 6.15518 39.95934 35972 ft 465 kts 228°
2026-04-22 19:43 6.08872 39.88820 35976 ft 466 kts 229°
2026-04-22 19:43 6.04487 39.84072 35976 ft 466 kts 229°
2026-04-22 19:44 6.00084 39.79299 35982 ft 465 kts 229°
2026-04-22 19:44 5.95678 39.74525 35985 ft 465 kts 229°
2026-04-22 19:45 5.91273 39.69755 35988 ft 465 kts 229°
2026-04-22 19:45 5.87012 39.64931 35991 ft 463 kts 231°
2026-04-22 19:46 5.82914 39.59939 35994 ft 463 kts 232°
2026-04-22 19:46 5.78802 39.54953 35992 ft 462 kts 231°
2026-04-22 19:47 5.74678 39.50011 35994 ft 461 kts 231°
2026-04-22 19:47 5.70574 39.45108 36000 ft 461 kts 231°
2026-04-22 19:48 5.66424 39.40147 36004 ft 461 kts 231°
2026-04-22 19:48 5.62328 39.35254 36011 ft 461 kts 231°
2026-04-22 19:49 5.58193 39.30320 36017 ft 461 kts 231°
2026-04-22 19:49 5.54067 39.25395 36002 ft 461 kts 231°
2026-04-22 19:50 5.49937 39.20462 36011 ft 462 kts 232°
2026-04-22 19:50 5.45797 39.15520 36013 ft 462 kts 231°
2026-04-22 19:51 5.41680 39.10605 35993 ft 463 kts 231°
2026-04-22 19:51 5.37527 39.05650 36001 ft 463 kts 231°
2026-04-22 19:52 5.33386 39.00711 35993 ft 464 kts 231°
2026-04-22 19:52 5.29224 38.95752 35996 ft 464 kts 231°
2026-04-22 19:53 5.25060 38.90789 35992 ft 464 kts 231°
2026-04-22 19:53 5.20905 38.85834 35972 ft 464 kts 231°
2026-04-22 19:54 5.16747 38.80877 35982 ft 464 kts 231°
2026-04-22 19:54 5.12596 38.75930 35988 ft 463 kts 231°
2026-04-22 19:55 5.08445 38.70986 35993 ft 463 kts 231°
2026-04-22 19:55 5.04301 38.66051 35987 ft 463 kts 231°
2026-04-22 19:56 5.00157 38.61116 35997 ft 462 kts 231°
2026-04-22 19:56 4.96039 38.56214 35997 ft 462 kts 231°
2026-04-22 19:57 4.91900 38.51288 35993 ft 461 kts 231°
2026-04-22 19:57 4.87766 38.46368 36010 ft 461 kts 231°
2026-04-22 19:58 4.83618 38.41434 36001 ft 461 kts 231°
2026-04-22 19:58 4.79481 38.36513 36008 ft 461 kts 231°
2026-04-22 20:00 4.65004 38.19302 36000 ft 463 kts 231°
2026-04-22 20:01 4.60847 38.14362 35996 ft 464 kts 231°
2026-04-22 20:01 4.56683 38.09415 35986 ft 464 kts 231°
2026-04-22 20:02 4.52510 38.04459 35985 ft 465 kts 232°
2026-04-22 20:02 4.48341 37.99507 35968 ft 466 kts 231°
2026-04-22 20:03 4.44186 37.94573 35963 ft 466 kts 231°
2026-04-22 20:03 4.40001 37.89604 35961 ft 466 kts 231°
2026-04-22 20:04 4.35819 37.84641 35950 ft 466 kts 231°
2026-04-22 20:04 4.31629 37.79668 35934 ft 466 kts 231°
2026-04-22 20:05 4.27442 37.74700 35941 ft 466 kts 231°
2026-04-22 20:05 4.23286 37.69769 35932 ft 466 kts 231°
2026-04-22 20:06 4.19103 37.64806 35927 ft 465 kts 231°
2026-04-22 20:06 4.14938 37.59868 35918 ft 464 kts 231°
2026-04-22 20:07 4.10765 37.54922 35911 ft 463 kts 232°
2026-04-22 20:07 4.06612 37.49994 35906 ft 462 kts 232°
2026-04-22 20:08 4.02462 37.45075 35905 ft 462 kts 231°
2026-04-22 20:08 3.98674 37.39966 35887 ft 459 kts 244°
2026-04-22 20:09 3.95862 37.34240 35888 ft 458 kts 246°
2026-04-22 20:09 3.93108 37.28475 35889 ft 459 kts 245°
2026-04-22 20:10 3.90317 37.22715 35891 ft 460 kts 245°
2026-04-22 20:10 3.87498 37.16962 35882 ft 461 kts 245°
2026-04-22 20:11 3.84680 37.11231 35890 ft 462 kts 245°
2026-04-22 20:11 3.81820 37.05418 35882 ft 462 kts 245°
2026-04-22 20:12 3.78991 36.99667 35887 ft 463 kts 245°
2026-04-22 20:12 3.76626 36.94856 35892 ft 463 kts 245°
2026-04-22 20:13 3.73299 36.88091 35882 ft 463 kts 245°
2026-04-22 20:13 3.70454 36.82310 35875 ft 463 kts 245°
2026-04-22 20:14 3.67923 36.77167 35890 ft 462 kts 245°
2026-04-22 20:14 3.65082 36.71394 35883 ft 461 kts 245°
2026-04-22 20:15 3.62268 36.65676 35862 ft 460 kts 245°
2026-04-22 20:15 3.59441 36.59929 35879 ft 459 kts 244°
2026-04-22 20:16 3.56614 36.54198 35855 ft 458 kts 244°
2026-04-22 20:16 3.54273 36.49448 35846 ft 458 kts 245°
2026-04-22 20:17 3.51458 36.43734 35859 ft 457 kts 245°
2026-04-22 20:17 3.48645 36.38021 35848 ft 457 kts 245°
2026-04-22 20:18 3.45824 36.32302 35831 ft 458 kts 244°
2026-04-22 20:18 3.43000 36.26572 35850 ft 458 kts 244°
2026-04-22 20:19 3.40196 36.20882 35824 ft 459 kts 245°
2026-04-22 20:19 3.37364 36.15140 35819 ft 460 kts 245°
2026-04-22 20:20 3.34534 36.09400 35826 ft 460 kts 245°
2026-04-22 20:20 3.31698 36.03649 35840 ft 460 kts 245°
2026-04-22 20:21 3.28876 35.97926 35826 ft 461 kts 245°
2026-04-22 20:21 3.26036 35.92168 35823 ft 461 kts 244°
2026-04-22 20:22 3.23192 35.86405 35841 ft 460 kts 245°
2026-04-22 20:22 3.20364 35.80678 35825 ft 460 kts 245°
2026-04-22 20:23 3.17528 35.74932 35831 ft 460 kts 244°
2026-04-22 20:23 3.14697 35.69192 35850 ft 460 kts 245°
2026-04-22 20:24 3.11846 35.63463 35838 ft 460 kts 241°
2026-04-22 20:24 3.07991 35.58401 35850 ft 463 kts 225°
2026-04-22 20:25 3.03325 35.53956 35854 ft 463 kts 224°
2026-04-22 20:25 2.98643 35.49517 35848 ft 464 kts 225°
2026-04-22 20:26 2.93986 35.45044 35853 ft 464 kts 225°
2026-04-22 20:26 2.89331 35.40547 35847 ft 465 kts 225°
2026-04-22 20:27 2.84669 35.36038 35862 ft 465 kts 225°
2026-04-22 20:27 2.80039 35.31560 35864 ft 466 kts 225°
2026-04-22 20:28 2.75375 35.27048 35860 ft 466 kts 225°
2026-04-22 20:28 2.70730 35.22558 35872 ft 466 kts 225°
2026-04-22 20:29 2.66061 35.18047 35869 ft 467 kts 225°
2026-04-22 20:29 2.61389 35.13533 35896 ft 467 kts 225°
2026-04-22 20:30 2.56700 35.09001 35891 ft 467 kts 225°
2026-04-22 20:30 2.52056 35.04513 35889 ft 467 kts 225°
2026-04-22 20:31 2.47374 34.99989 35926 ft 467 kts 225°
2026-04-22 20:31 2.42790 34.95373 35927 ft 467 kts 230°
2026-04-22 20:32 2.38572 34.90437 35910 ft 467 kts 231°
2026-04-22 20:32 2.34412 34.85450 35934 ft 466 kts 231°
2026-04-22 20:33 2.30218 34.80503 35941 ft 466 kts 231°
2026-04-22 20:33 2.26027 34.75610 35938 ft 466 kts 231°
2026-04-22 20:34 2.21801 34.70687 35945 ft 466 kts 230°
2026-04-22 20:34 2.17583 34.65772 35939 ft 466 kts 230°
2026-04-22 20:35 2.13368 34.60858 35932 ft 465 kts 230°
2026-04-22 20:35 2.09153 34.55945 35934 ft 465 kts 230°
2026-04-22 20:36 2.04934 34.51028 35933 ft 465 kts 230°
2026-04-22 20:36 2.00745 34.46146 35931 ft 465 kts 230°
2026-04-22 20:37 1.96529 34.41233 35938 ft 465 kts 230°
2026-04-22 20:37 1.92323 34.36332 35932 ft 465 kts 230°
2026-04-22 20:38 1.88108 34.31420 35930 ft 465 kts 230°
2026-04-22 20:38 1.83898 34.26515 35932 ft 465 kts 230°
2026-04-22 20:39 1.79551 34.21729 35922 ft 465 kts 226°
2026-04-22 20:39 1.74999 34.17130 35929 ft 465 kts 226°
2026-04-22 20:40 1.70427 34.12536 35921 ft 465 kts 226°
2026-04-22 20:40 1.65889 34.07927 35926 ft 465 kts 226°
2026-04-22 20:41 1.61355 34.03296 35926 ft 466 kts 226°
2026-04-22 20:41 1.56832 33.98670 35933 ft 466 kts 226°
2026-04-22 20:42 1.52298 33.94034 35933 ft 466 kts 226°
2026-04-22 20:42 1.47771 33.89408 35939 ft 466 kts 226°
2026-04-22 20:43 1.43235 33.84773 35945 ft 466 kts 226°
2026-04-22 20:43 1.38734 33.80174 35937 ft 466 kts 226°
2026-04-22 20:43 1.36468 33.77859 35813 ft 468 kts 226°
2026-04-22 20:44 1.34187 33.75528 35557 ft 468 kts 226°
2026-04-22 20:44 1.31914 33.73206 35326 ft 466 kts 226°
2026-04-22 20:44 1.29641 33.70884 35096 ft 466 kts 226°
2026-04-22 20:44 1.27369 33.68563 34879 ft 468 kts 226°
2026-04-22 20:45 1.25101 33.66245 34369 ft 468 kts 226°
2026-04-22 20:45 1.22820 33.63915 33730 ft 469 kts 226°
2026-04-22 20:45 1.20531 33.61576 33004 ft 470 kts 226°
2026-04-22 20:45 1.18240 33.59235 32291 ft 472 kts 226°
2026-04-22 20:46 1.13629 33.54525 30807 ft 476 kts 225°
2026-04-22 20:46 1.11301 33.52148 30044 ft 478 kts 225°
2026-04-22 20:46 1.08985 33.49782 29439 ft 475 kts 225°
2026-04-22 20:47 1.06712 33.47460 28823 ft 471 kts 225°
2026-04-22 20:47 1.04433 33.45132 28253 ft 466 kts 225°
2026-04-22 20:47 1.02180 33.42830 27704 ft 462 kts 225°
2026-04-22 20:47 0.99944 33.40547 27156 ft 458 kts 225°
2026-04-22 20:48 0.97718 33.38273 26626 ft 454 kts 225°
2026-04-22 20:48 0.95520 33.36027 26095 ft 450 kts 224°
2026-04-22 20:48 0.93337 33.33798 25554 ft 447 kts 224°
2026-04-22 20:48 0.91165 33.31580 25010 ft 445 kts 224°
2026-04-22 20:49 0.88999 33.29368 24471 ft 443 kts 224°
2026-04-22 20:49 0.86847 33.27169 23937 ft 442 kts 224°
2026-04-22 20:49 0.84702 33.24979 23376 ft 440 kts 224°
2026-04-22 20:49 0.82568 33.22784 22771 ft 438 kts 227°
2026-04-22 20:50 0.80887 33.20323 22221 ft 436 kts 245°
2026-04-22 20:50 0.79923 33.17473 21771 ft 431 kts 254°
2026-04-22 20:50 0.79135 33.14585 21230 ft 428 kts 255°
2026-04-22 20:50 0.78368 33.11723 20729 ft 425 kts 254°
2026-04-22 20:51 0.77588 33.08887 20221 ft 422 kts 254°
2026-04-22 20:51 0.76792 33.06077 19716 ft 419 kts 253°
2026-04-22 20:51 0.75987 33.03280 19192 ft 417 kts 253°
2026-04-22 20:51 0.75164 33.00510 18682 ft 415 kts 250°
2026-04-22 20:52 0.73813 32.97982 18176 ft 411 kts 234°
2026-04-22 20:52 0.72176 32.95700 17606 ft 409 kts 233°
2026-04-22 20:52 0.70530 32.93390 17095 ft 405 kts 234°
2026-04-22 20:52 0.68915 32.91095 16586 ft 402 kts 234°
2026-04-22 20:53 0.67321 32.88807 16100 ft 399 kts 234°
2026-04-22 20:53 0.65746 32.86531 15612 ft 396 kts 234°
2026-04-22 20:53 0.64188 32.84273 15133 ft 393 kts 234°
2026-04-22 20:53 0.62639 32.82026 14630 ft 392 kts 234°
2026-04-22 20:54 0.61097 32.79788 14146 ft 390 kts 234°
2026-04-22 20:54 0.59577 32.77583 13644 ft 389 kts 234°
2026-04-22 20:54 0.58046 32.75362 13121 ft 387 kts 234°
2026-04-22 20:54 0.56526 32.73157 12626 ft 384 kts 234°
2026-04-22 20:55 0.55017 32.70969 12145 ft 381 kts 234°
2026-04-22 20:55 0.53517 32.68795 11624 ft 379 kts 234°
2026-04-22 20:55 0.52018 32.66622 11061 ft 379 kts 234°
2026-04-22 20:55 0.50528 32.64462 10744 ft 372 kts 234°
2026-04-22 20:56 0.49082 32.62364 10531 ft 362 kts 234°
2026-04-22 20:56 0.47678 32.60327 10385 ft 350 kts 234°
2026-04-22 20:56 0.46315 32.58350 10236 ft 340 kts 234°
2026-04-22 20:56 0.44992 32.56431 10098 ft 331 kts 234°
2026-04-22 20:57 0.43704 32.54563 9948 ft 322 kts 234°
2026-04-22 20:57 0.42447 32.52740 9866 ft 312 kts 234°
2026-04-22 20:57 0.41232 32.50978 9407 ft 315 kts 234°
2026-04-22 20:57 0.39992 32.49182 9068 ft 314 kts 234°
2026-04-22 20:58 0.38756 32.47389 8740 ft 312 kts 234°
2026-04-22 20:58 0.37533 32.45615 8417 ft 308 kts 234°
2026-04-22 20:58 0.36328 32.43868 8165 ft 300 kts 233°
2026-04-22 20:58 0.35170 32.42187 8066 ft 286 kts 233°
2026-04-22 20:59 0.33858 32.40796 7928 ft 268 kts 209°
2026-04-22 20:59 0.32158 32.40164 7866 ft 259 kts 188°
2026-04-22 20:59 0.30361 32.40149 7752 ft 258 kts 170°
2026-04-22 20:59 0.28590 32.40396 7644 ft 254 kts 170°
2026-04-22 21:00 0.26894 32.40640 7519 ft 239 kts 169°
2026-04-22 21:00 0.25297 32.40872 7264 ft 230 kts 169°
2026-04-22 21:00 0.23742 32.41102 7046 ft 222 kts 170°
2026-04-22 21:00 0.22242 32.41312 6814 ft 213 kts 170°
2026-04-22 21:01 0.20792 32.41512 6598 ft 206 kts 170°
2026-04-22 21:01 0.19400 32.41705 6375 ft 197 kts 171°
2026-04-22 21:01 0.18081 32.41888 6157 ft 185 kts 171°
2026-04-22 21:01 0.16858 32.42057 6006 ft 169 kts 171°
2026-04-22 21:02 0.15754 32.42210 5826 ft 155 kts 171°
2026-04-22 21:02 0.14723 32.42354 5633 ft 154 kts 171°
2026-04-22 21:02 0.13653 32.42502 5438 ft 158 kts 171°
2026-04-22 21:02 0.12563 32.42654 5235 ft 157 kts 172°
2026-04-22 21:03 0.11485 32.42803 5031 ft 154 kts 173°
2026-04-22 21:03 0.10414 32.42951 4813 ft 156 kts 173°
2026-04-22 21:03 0.09336 32.43101 4602 ft 156 kts 173°
2026-04-22 21:03 0.08260 32.43259 4444 ft 158 kts 173°
2026-04-22 21:04 0.07184 32.43397 4159 ft 153 kts 176°
2026-04-22 21:04 0.06154 32.43550 3943 ft 146 kts 174°
2026-04-22 21:04 0.05162 32.43679 3789 ft 138 kts 176°
2026-04-22 21:04 0.04322 32.43791 3791 ft 103 kts 172°
2026-04-22 21:05 0.03762 32.43869 3785 ft 59 kts 172°
2026-04-22 21:05 0.03418 32.43917 3785 ft 46 kts 172°
2026-04-22 21:05 0.03117 32.43959 3783 ft 42 kts 172°
2026-04-22 21:05 0.02966 32.43991 3785 ft 20 kts 147°
2026-04-22 21:06 0.02862 32.44077 3789 ft 18 kts 142°
2026-04-22 21:06 0.02820 32.44114 3786 ft 10 kts 124°
2026-04-22 21:06 0.02871 32.44167 3781 ft 11 kts 352°
2026-04-22 21:06 0.02923 32.44159 3786 ft 12 kts 351°
2026-04-22 21:07 0.03004 32.44148 3784 ft 12 kts 352°
2026-04-22 21:07 0.03083 32.44137 3779 ft 11 kts 352°
2026-04-22 21:07 0.03160 32.44126 3780 ft 11 kts 352°
2026-04-22 21:07 0.03235 32.44116 3784 ft 11 kts 352°
2026-04-22 21:08 0.03308 32.44107 3780 ft 10 kts 352°
2026-04-22 21:08 0.03378 32.44097 3784 ft 10 kts 352°
2026-04-22 21:08 0.03447 32.44087 3782 ft 10 kts 351°
2026-04-22 21:08 0.03513 32.44077 3784 ft 10 kts 353°
2026-04-22 21:09 0.03579 32.44069 3780 ft 10 kts 352°
2026-04-22 21:09 0.03653 32.44058 3779 ft 11 kts 352°
2026-04-22 21:09 0.03726 32.44048 3784 ft 11 kts 352°
2026-04-22 21:09 0.03802 32.44037 3779 ft 12 kts 352°
2026-04-22 21:10 0.03894 32.44024 3779 ft 15 kts 354°
2026-04-22 21:10 0.04002 32.44010 3779 ft 15 kts 352°
2026-04-22 21:10 0.04106 32.43995 3779 ft 15 kts 352°
2026-04-22 21:10 0.04175 32.43987 3779 ft 6 kts
2026-04-22 21:11 0.04206 32.44016 3779 ft 7 kts 72°
2026-04-22 21:11 0.04212 32.44072 3782 ft 8 kts 84°
2026-04-22 21:11 0.04227 32.44127 3787 ft 8 kts 48°
2026-04-22 21:11 0.04281 32.44134 3784 ft 8 kts 351°
2026-04-22 21:12 0.04335 32.44126 3779 ft 8 kts 352°
2026-04-22 21:12 0.04387 32.44119 3784 ft 8 kts 352°
2026-04-22 21:12 0.04437 32.44114 3781 ft 7 kts
2026-04-22 21:12 0.04449 32.44140 3782 ft 4 kts 89°
2026-04-22 21:13 0.04452 32.44168 3779 ft 4 kts 81°
2026-04-22 21:13 0.04456 32.44194 3779 ft 2 kts 82°
2026-04-22 21:13 0.04457 32.44201 3783 ft 0 kts 82°